Location: *
(49.9853°N, 3.5569°E)
Time: 20:48:01
(UTC+00:00)

ERBS - Pass Details

Date: 22 September 2019
Orbit: 418 x 425 km, 57.0° (Epoch: 18 October)

Event Time Altitude Azimuth Distance (km) Brightness Sun altitude
Rises 19:21:10 0° 302° (WNW) 2,394 7.8 -16.0°
Reaches altitude 10° 19:23:17 10° 299° (WNW) 1,525 6.4 -16.3°
Maximum altitude 19:26:39 63° 218° (SW) 483 2.5 -16.8°
Enters shadow 19:27:42 39° 154° (SSE) 658 2.8 -17.0°
